Year,Month,Day,Hour,Minute,Value (Times are PST for temperature in C)
2019,05,30,00,00,12.90
2019,05,30,00,01,12.90
2019,05,30,00,02,12.80
2019,05,30,00,03,12.80
2019,05,30,00,04,12.80
2019,05,30,00,05,12.80
2019,05,30,00,06,12.70
2019,05,30,00,07,12.70
2019,05,30,00,08,12.70
2019,05,30,00,09,12.70
2019,05,30,00,10,12.70
2019,05,30,00,11,12.60
2019,05,30,00,12,12.60
2019,05,30,00,13,12.60
2019,05,30,00,14,12.60
2019,05,30,00,15,12.50
2019,05,30,00,16,12.50
2019,05,30,00,17,12.50
2019,05,30,00,18,12.50
2019,05,30,00,19,12.40
2019,05,30,00,20,12.40
2019,05,30,00,21,12.40
2019,05,30,00,22,12.40
2019,05,30,00,23,12.40
2019,05,30,00,24,12.40
2019,05,30,00,25,12.30
2019,05,30,00,26,12.30
2019,05,30,00,27,12.30
2019,05,30,00,28,12.30
2019,05,30,00,29,12.20
2019,05,30,00,30,12.20
2019,05,30,00,31,12.20
2019,05,30,00,32,12.20
2019,05,30,00,33,12.10
2019,05,30,00,34,12.10
2019,05,30,00,35,12.10
2019,05,30,00,36,12.10
2019,05,30,00,37,12.10
2019,05,30,00,38,12.00
2019,05,30,00,39,12.00
2019,05,30,00,40,12.00
2019,05,30,00,41,12.00
2019,05,30,00,42,11.90
2019,05,30,00,43,11.90
2019,05,30,00,44,11.90
2019,05,30,00,45,11.90
2019,05,30,00,46,11.80
2019,05,30,00,47,11.80
2019,05,30,00,48,11.80
2019,05,30,00,49,11.80
2019,05,30,00,50,11.80
2019,05,30,00,51,11.80
2019,05,30,00,52,11.70
2019,05,30,00,53,11.70
2019,05,30,00,54,11.70
2019,05,30,00,55,11.70
2019,05,30,00,56,11.70
2019,05,30,00,57,11.70
2019,05,30,00,58,11.60
2019,05,30,00,59,11.60
2019,05,30,01,00,11.60
2019,05,30,01,01,11.60
2019,05,30,01,02,11.60
2019,05,30,01,03,11.60
2019,05,30,01,04,11.60
2019,05,30,01,05,11.60
2019,05,30,01,06,11.50
2019,05,30,01,07,11.50
2019,05,30,01,08,11.50
2019,05,30,01,09,11.50
2019,05,30,01,10,11.50
2019,05,30,01,11,11.40
2019,05,30,01,12,11.40
2019,05,30,01,13,11.40
2019,05,30,01,14,11.40
2019,05,30,01,15,11.40
2019,05,30,01,16,11.30
2019,05,30,01,17,11.30
2019,05,30,01,18,11.30
2019,05,30,01,19,11.30
2019,05,30,01,20,11.30
2019,05,30,01,21,11.30
2019,05,30,01,22,11.20
2019,05,30,01,23,11.20
2019,05,30,01,24,11.20
2019,05,30,01,25,11.20
2019,05,30,01,26,11.20
2019,05,30,01,27,11.20
2019,05,30,01,28,11.10
2019,05,30,01,29,11.10
2019,05,30,01,30,11.10
2019,05,30,01,31,11.10
2019,05,30,01,32,11.10
2019,05,30,01,33,11.00
2019,05,30,01,34,11.00
2019,05,30,01,35,11.00
2019,05,30,01,36,10.90
2019,05,30,01,37,10.90
2019,05,30,01,38,10.90
2019,05,30,01,39,10.90
2019,05,30,01,40,10.90
2019,05,30,01,41,10.90
2019,05,30,01,42,10.90
2019,05,30,01,43,10.80
2019,05,30,01,44,10.80
2019,05,30,01,45,10.80
2019,05,30,01,46,10.80
2019,05,30,01,47,10.80
2019,05,30,01,48,10.80
2019,05,30,01,49,10.70
2019,05,30,01,50,10.70
2019,05,30,01,51,10.70
2019,05,30,01,52,10.70
2019,05,30,01,53,10.70
2019,05,30,01,54,10.70
2019,05,30,01,55,10.70
2019,05,30,01,56,10.70
2019,05,30,01,57,10.70
2019,05,30,01,58,10.70
2019,05,30,01,59,10.70
2019,05,30,02,00,10.70
2019,05,30,02,01,10.70
2019,05,30,02,02,10.70
2019,05,30,02,03,10.60
2019,05,30,02,04,10.60
2019,05,30,02,05,10.60
2019,05,30,02,06,10.60
2019,05,30,02,07,10.60
2019,05,30,02,08,10.60
2019,05,30,02,09,10.60
2019,05,30,02,10,10.60
2019,05,30,02,11,10.60
2019,05,30,02,12,10.50
2019,05,30,02,13,10.50
2019,05,30,02,14,10.50
2019,05,30,02,15,10.50
2019,05,30,02,16,10.40
2019,05,30,02,17,10.40
2019,05,30,02,18,10.40
2019,05,30,02,19,10.40
2019,05,30,02,20,10.40
2019,05,30,02,21,10.40
2019,05,30,02,22,10.30
2019,05,30,02,23,10.30
2019,05,30,02,24,10.30
2019,05,30,02,25,10.30
2019,05,30,02,26,10.30
2019,05,30,02,27,10.30
2019,05,30,02,28,10.30
2019,05,30,02,29,10.30
2019,05,30,02,30,10.30
2019,05,30,02,31,10.30
2019,05,30,02,32,10.30
2019,05,30,02,33,10.30
2019,05,30,02,34,10.30
2019,05,30,02,35,10.30
2019,05,30,02,36,10.30
2019,05,30,02,37,10.30
2019,05,30,02,38,10.20
2019,05,30,02,39,10.20
2019,05,30,02,40,10.20
2019,05,30,02,41,10.20
2019,05,30,02,42,10.20
2019,05,30,02,43,10.20
2019,05,30,02,44,10.20
2019,05,30,02,45,10.20
2019,05,30,02,46,10.20
2019,05,30,02,47,10.20
2019,05,30,02,48,10.20
2019,05,30,02,49,10.10
2019,05,30,02,50,10.10
2019,05,30,02,51,10.10
2019,05,30,02,52,10.10
2019,05,30,02,53,10.10
2019,05,30,02,54,10.00
2019,05,30,02,55,10.00
2019,05,30,02,56,10.00
2019,05,30,02,57,10.00
2019,05,30,02,58,10.00
2019,05,30,02,59,10.00
2019,05,30,03,00,10.00
2019,05,30,03,01,9.90
2019,05,30,03,02,9.90
2019,05,30,03,03,9.90
2019,05,30,03,04,9.90
2019,05,30,03,05,9.90
2019,05,30,03,06,9.90
2019,05,30,03,07,9.80
2019,05,30,03,08,9.80
2019,05,30,03,09,9.90
2019,05,30,03,10,9.90
2019,05,30,03,11,9.90
2019,05,30,03,12,9.90
2019,05,30,03,13,9.90
2019,05,30,03,14,9.90
2019,05,30,03,15,9.90
2019,05,30,03,16,9.90
2019,05,30,03,17,9.90
2019,05,30,03,18,9.80
2019,05,30,03,19,9.80
2019,05,30,03,20,9.80
2019,05,30,03,21,9.80
2019,05,30,03,22,9.80
2019,05,30,03,23,9.80
2019,05,30,03,24,9.80
2019,05,30,03,25,9.80
2019,05,30,03,26,9.80
2019,05,30,03,27,9.80
2019,05,30,03,28,9.80
2019,05,30,03,29,9.70
2019,05,30,03,30,9.70
2019,05,30,03,31,9.70
2019,05,30,03,32,9.70
2019,05,30,03,33,9.70
2019,05,30,03,34,9.70
2019,05,30,03,35,9.60
2019,05,30,03,36,9.60
2019,05,30,03,37,9.60
2019,05,30,03,38,9.60
2019,05,30,03,39,9.60
2019,05,30,03,40,9.60
2019,05,30,03,41,9.60
2019,05,30,03,42,9.60
2019,05,30,03,43,9.60
2019,05,30,03,44,9.60
2019,05,30,03,45,9.60
2019,05,30,03,46,9.60
2019,05,30,03,47,9.60
2019,05,30,03,48,9.60
2019,05,30,03,49,9.60
2019,05,30,03,50,9.60
2019,05,30,03,51,9.60
2019,05,30,03,52,9.60
2019,05,30,03,53,9.60
2019,05,30,03,54,9.60
2019,05,30,03,55,9.50
2019,05,30,03,56,9.50
2019,05,30,03,57,9.50
2019,05,30,03,58,9.50
2019,05,30,03,59,9.50
2019,05,30,04,00,9.50
2019,05,30,04,01,9.50
2019,05,30,04,02,9.50
2019,05,30,04,03,9.50
2019,05,30,04,04,9.50
2019,05,30,04,05,9.50
2019,05,30,04,06,9.50
2019,05,30,04,07,9.50
2019,05,30,04,08,9.50
2019,05,30,04,09,9.50
2019,05,30,04,10,9.50
2019,05,30,04,11,9.50
2019,05,30,04,12,9.50
2019,05,30,04,13,9.50
2019,05,30,04,14,9.60
2019,05,30,04,15,9.60
2019,05,30,04,16,9.60
2019,05,30,04,17,9.60
2019,05,30,04,18,9.60
2019,05,30,04,19,9.60
2019,05,30,04,20,9.60
2019,05,30,04,21,9.60
2019,05,30,04,22,9.60
2019,05,30,04,23,9.50
2019,05,30,04,24,9.60
2019,05,30,04,25,9.50
2019,05,30,04,26,9.50
2019,05,30,04,27,9.50
2019,05,30,04,28,9.50
2019,05,30,04,29,9.50
2019,05,30,04,30,9.40
2019,05,30,04,31,9.40
2019,05,30,04,32,9.40
2019,05,30,04,33,9.40
2019,05,30,04,34,9.40
2019,05,30,04,35,9.40
2019,05,30,04,36,9.40
2019,05,30,04,37,9.40
2019,05,30,04,38,9.40
2019,05,30,04,39,9.40
2019,05,30,04,40,9.30
2019,05,30,04,41,9.30
2019,05,30,04,42,9.30
2019,05,30,04,43,9.30
2019,05,30,04,44,9.30
2019,05,30,04,45,9.30
2019,05,30,04,46,9.30
2019,05,30,04,47,9.30
2019,05,30,04,48,9.30
2019,05,30,04,49,9.30
2019,05,30,04,50,9.30
2019,05,30,04,51,9.30
2019,05,30,04,52,9.30
2019,05,30,04,53,9.30
2019,05,30,04,54,9.30
2019,05,30,04,55,9.30
2019,05,30,04,56,9.30
2019,05,30,04,57,9.20
2019,05,30,04,58,9.20
2019,05,30,04,59,9.20
2019,05,30,05,00,9.20
2019,05,30,05,01,9.20
2019,05,30,05,02,9.10
2019,05,30,05,03,9.10
2019,05,30,05,04,9.10
2019,05,30,05,05,9.10
2019,05,30,05,06,9.10
2019,05,30,05,07,9.10
2019,05,30,05,08,9.10
2019,05,30,05,09,9.10
2019,05,30,05,10,9.10
2019,05,30,05,11,9.10
2019,05,30,05,12,9.10
2019,05,30,05,13,9.10
2019,05,30,05,14,9.10
2019,05,30,05,15,9.10
2019,05,30,05,16,9.10
2019,05,30,05,17,9.10
2019,05,30,05,18,9.10
2019,05,30,05,19,9.10
2019,05,30,05,20,9.10
2019,05,30,05,21,9.10
2019,05,30,05,22,9.10
2019,05,30,05,23,9.10
2019,05,30,05,24,9.10
2019,05,30,05,25,9.10
2019,05,30,05,26,9.10
2019,05,30,05,27,9.00
2019,05,30,05,28,9.00
2019,05,30,05,29,9.00
2019,05,30,05,30,9.00
2019,05,30,05,31,8.90
2019,05,30,05,32,8.90
2019,05,30,05,33,8.90
2019,05,30,05,34,8.90
2019,05,30,05,35,8.90
2019,05,30,05,36,8.90
2019,05,30,05,37,9.00
2019,05,30,05,38,9.00
2019,05,30,05,39,9.00
2019,05,30,05,40,9.00
2019,05,30,05,41,9.00
2019,05,30,05,42,9.00
2019,05,30,05,43,9.00
2019,05,30,05,44,9.00
2019,05,30,05,45,9.00
2019,05,30,05,46,9.00
2019,05,30,05,47,9.00
2019,05,30,05,48,9.00
2019,05,30,05,49,8.90
2019,05,30,05,50,8.90
2019,05,30,05,51,8.90
2019,05,30,05,52,8.90
2019,05,30,05,53,8.90
2019,05,30,05,54,8.90
2019,05,30,05,55,8.90
2019,05,30,05,56,8.90
2019,05,30,05,57,8.90
2019,05,30,05,58,8.90
2019,05,30,05,59,8.90
2019,05,30,06,00,8.90
2019,05,30,06,01,8.90
2019,05,30,06,02,8.90
2019,05,30,06,03,8.90
2019,05,30,06,04,8.90
2019,05,30,06,05,8.90
2019,05,30,06,06,8.90
2019,05,30,06,07,8.90
2019,05,30,06,08,8.90
2019,05,30,06,09,9.00
2019,05,30,06,10,9.00
2019,05,30,06,11,9.00
2019,05,30,06,12,9.00
2019,05,30,06,13,9.00
2019,05,30,06,14,9.00
2019,05,30,06,15,9.00
2019,05,30,06,16,9.00
2019,05,30,06,17,9.00
2019,05,30,06,18,9.10
2019,05,30,06,19,9.10
2019,05,30,06,20,9.10
2019,05,30,06,21,9.10
2019,05,30,06,22,9.10
2019,05,30,06,23,9.10
2019,05,30,06,24,9.20
2019,05,30,06,25,9.20
2019,05,30,06,26,9.20
2019,05,30,06,27,9.30
2019,05,30,06,28,9.30
2019,05,30,06,29,9.30
2019,05,30,06,30,9.30
2019,05,30,06,31,9.40
2019,05,30,06,32,9.40
2019,05,30,06,33,9.50
2019,05,30,06,34,9.50
2019,05,30,06,35,9.60
2019,05,30,06,36,9.70
2019,05,30,06,37,9.80
2019,05,30,06,38,9.80
2019,05,30,06,39,9.90
2019,05,30,06,40,9.90
2019,05,30,06,41,10.00
2019,05,30,06,42,10.10
2019,05,30,06,43,10.10
2019,05,30,06,44,10.20
2019,05,30,06,45,10.20
2019,05,30,06,46,10.30
2019,05,30,06,47,10.40
2019,05,30,06,48,10.50
2019,05,30,06,49,10.60
2019,05,30,06,50,10.70
2019,05,30,06,51,10.80
2019,05,30,06,52,10.90
2019,05,30,06,53,11.00
2019,05,30,06,54,11.10
2019,05,30,06,55,11.20
2019,05,30,06,56,11.30
2019,05,30,06,57,11.40
2019,05,30,06,58,11.50
2019,05,30,06,59,11.60
2019,05,30,07,00,11.60
2019,05,30,07,01,11.70
2019,05,30,07,02,11.70
2019,05,30,07,03,11.70
2019,05,30,07,04,11.80
2019,05,30,07,05,11.80
2019,05,30,07,06,11.80
2019,05,30,07,07,11.80
2019,05,30,07,08,11.90
2019,05,30,07,09,11.90
2019,05,30,07,10,12.00
2019,05,30,07,11,12.00
2019,05,30,07,12,12.10
2019,05,30,07,13,12.10
2019,05,30,07,14,12.10
2019,05,30,07,15,12.20
2019,05,30,07,16,12.20
2019,05,30,07,17,12.30
2019,05,30,07,18,12.30
2019,05,30,07,19,12.40
2019,05,30,07,20,12.40
2019,05,30,07,21,12.50
2019,05,30,07,22,12.60
2019,05,30,07,23,12.60
2019,05,30,07,24,12.70
2019,05,30,07,25,12.70
2019,05,30,07,26,12.80
2019,05,30,07,27,12.90
2019,05,30,07,28,12.90
2019,05,30,07,29,13.00
2019,05,30,07,30,13.00
2019,05,30,07,31,13.10
2019,05,30,07,32,13.10
2019,05,30,07,33,13.20
2019,05,30,07,34,13.20
2019,05,30,07,35,13.30
2019,05,30,07,36,13.30
2019,05,30,07,37,13.40
2019,05,30,07,38,13.40
2019,05,30,07,39,13.40
2019,05,30,07,40,13.50
2019,05,30,07,41,13.60
2019,05,30,07,42,13.60
2019,05,30,07,43,13.70
2019,05,30,07,44,13.70
2019,05,30,07,45,13.80
2019,05,30,07,46,13.80
2019,05,30,07,47,13.80
2019,05,30,07,48,13.90
2019,05,30,07,49,13.90
2019,05,30,07,50,13.90
2019,05,30,07,51,14.00
2019,05,30,07,52,14.00
2019,05,30,07,53,14.00
2019,05,30,07,54,14.10
2019,05,30,07,55,14.10
2019,05,30,07,56,14.20
2019,05,30,07,57,14.20
2019,05,30,07,58,14.30
2019,05,30,07,59,14.30
2019,05,30,08,00,14.30
2019,05,30,08,01,14.40
2019,05,30,08,02,14.40
2019,05,30,08,03,14.50
2019,05,30,08,04,14.50
2019,05,30,08,05,14.60
2019,05,30,08,06,14.60
2019,05,30,08,07,14.70
2019,05,30,08,08,14.70
2019,05,30,08,09,14.80
2019,05,30,08,10,14.80
2019,05,30,08,11,14.80
2019,05,30,08,12,14.90
2019,05,30,08,13,14.90
2019,05,30,08,14,15.00
2019,05,30,08,15,15.00
2019,05,30,08,16,15.00
2019,05,30,08,17,15.00
2019,05,30,08,18,15.10
2019,05,30,08,19,15.10
2019,05,30,08,20,15.10
2019,05,30,08,21,15.10
2019,05,30,08,22,15.10
2019,05,30,08,23,15.10
2019,05,30,08,24,15.20
2019,05,30,08,25,15.20
2019,05,30,08,26,15.20
2019,05,30,08,27,15.30
2019,05,30,08,28,15.30
2019,05,30,08,29,15.30
2019,05,30,08,30,15.40
2019,05,30,08,31,15.50
2019,05,30,08,32,15.60
2019,05,30,08,33,15.70
2019,05,30,08,34,15.70
2019,05,30,08,35,15.80
2019,05,30,08,36,15.90
2019,05,30,08,37,15.90
2019,05,30,08,38,16.00
2019,05,30,08,39,16.10
2019,05,30,08,40,16.20
2019,05,30,08,41,16.20
2019,05,30,08,42,16.30
2019,05,30,08,43,16.30
2019,05,30,08,44,16.30
2019,05,30,08,45,16.30
2019,05,30,08,46,16.40
2019,05,30,08,47,16.40
2019,05,30,08,48,16.40
2019,05,30,08,49,16.40
2019,05,30,08,50,16.40
2019,05,30,08,51,16.40
2019,05,30,08,52,16.50
2019,05,30,08,53,16.50
2019,05,30,08,54,16.60
2019,05,30,08,55,16.70
2019,05,30,08,56,16.70
2019,05,30,08,57,16.80
2019,05,30,08,58,16.80
2019,05,30,08,59,16.80
2019,05,30,09,00,16.80
2019,05,30,09,01,16.80
2019,05,30,09,02,16.80
2019,05,30,09,03,16.80
2019,05,30,09,04,16.70
2019,05,30,09,05,16.70
2019,05,30,09,06,16.70
2019,05,30,09,07,16.70
2019,05,30,09,08,16.70
2019,05,30,09,09,16.70
2019,05,30,09,10,16.70
2019,05,30,09,11,16.70
2019,05,30,09,12,16.60
2019,05,30,09,13,16.60
2019,05,30,09,14,16.60
2019,05,30,09,15,16.50
2019,05,30,09,16,16.50
2019,05,30,09,17,16.50
2019,05,30,09,18,16.50
2019,05,30,09,19,16.60
2019,05,30,09,20,16.60
2019,05,30,09,21,16.70
2019,05,30,09,22,16.70
2019,05,30,09,23,16.70
2019,05,30,09,24,16.70
2019,05,30,09,25,16.60
2019,05,30,09,26,16.60
2019,05,30,09,27,16.60
2019,05,30,09,28,16.60
2019,05,30,09,29,16.60
2019,05,30,09,30,16.60
2019,05,30,09,31,16.60
2019,05,30,09,32,16.60
2019,05,30,09,33,16.70
2019,05,30,09,34,16.70
2019,05,30,09,35,16.80
2019,05,30,09,36,16.80
2019,05,30,09,37,16.90
2019,05,30,09,38,16.90
2019,05,30,09,39,16.90
2019,05,30,09,40,17.00
2019,05,30,09,41,17.10
2019,05,30,09,42,17.10
2019,05,30,09,43,17.20
2019,05,30,09,44,17.30
2019,05,30,09,45,17.40
2019,05,30,09,46,17.50
2019,05,30,09,47,17.60
2019,05,30,09,48,17.60
2019,05,30,09,49,17.60
2019,05,30,09,50,17.70
2019,05,30,09,51,17.70
2019,05,30,09,52,17.70
2019,05,30,09,53,17.80
2019,05,30,09,54,17.80
2019,05,30,09,55,17.80
2019,05,30,09,56,17.80
2019,05,30,09,57,17.80
2019,05,30,09,58,17.80
2019,05,30,09,59,17.80
2019,05,30,10,00,17.80
2019,05,30,10,01,17.80
2019,05,30,10,02,17.70
2019,05,30,10,03,17.70
2019,05,30,10,04,17.70
2019,05,30,10,05,17.70
2019,05,30,10,06,17.70
2019,05,30,10,07,17.70
2019,05,30,10,08,17.70
2019,05,30,10,09,17.70
2019,05,30,10,10,17.70
2019,05,30,10,11,17.70
2019,05,30,10,12,17.70
2019,05,30,10,13,17.60
2019,05,30,10,14,17.50
2019,05,30,10,15,17.50
2019,05,30,10,16,17.50
2019,05,30,10,17,17.60
2019,05,30,10,18,17.70
2019,05,30,10,19,17.80
2019,05,30,10,20,17.80
2019,05,30,10,21,17.80
2019,05,30,10,22,17.80
2019,05,30,10,23,17.80
2019,05,30,10,24,17.80
2019,05,30,10,25,17.80
2019,05,30,10,26,17.80
2019,05,30,10,27,17.70
2019,05,30,10,28,17.70
2019,05,30,10,29,17.70
2019,05,30,10,30,17.70
2019,05,30,10,31,17.70
2019,05,30,10,32,17.70
2019,05,30,10,33,17.70
2019,05,30,10,34,17.80
2019,05,30,10,35,17.80
2019,05,30,10,36,17.90
2019,05,30,10,37,17.90
2019,05,30,10,38,17.90
2019,05,30,10,39,17.90
2019,05,30,10,40,17.90
2019,05,30,10,41,17.90
2019,05,30,10,42,18.00
2019,05,30,10,43,18.00
2019,05,30,10,44,18.10
2019,05,30,10,45,18.10
2019,05,30,10,46,18.10
2019,05,30,10,47,18.10
2019,05,30,10,48,18.10
2019,05,30,10,49,18.10
2019,05,30,10,50,18.10
2019,05,30,10,51,18.20
2019,05,30,10,52,18.20
2019,05,30,10,53,18.20
2019,05,30,10,54,18.20
2019,05,30,10,55,18.30
2019,05,30,10,56,18.40
2019,05,30,10,57,18.40
2019,05,30,10,58,18.50
2019,05,30,10,59,18.50
2019,05,30,11,00,18.60
2019,05,30,11,01,18.60
2019,05,30,11,02,18.60
2019,05,30,11,03,18.70
2019,05,30,11,04,18.80
2019,05,30,11,05,18.80
2019,05,30,11,06,18.90
2019,05,30,11,07,18.90
2019,05,30,11,08,18.90
2019,05,30,11,09,18.90
2019,05,30,11,10,18.90
2019,05,30,11,11,18.90
2019,05,30,11,12,18.90
2019,05,30,11,13,18.90
2019,05,30,11,14,19.00
2019,05,30,11,15,19.00
2019,05,30,11,16,19.10
2019,05,30,11,17,19.10
2019,05,30,11,18,19.10
2019,05,30,11,19,19.10
2019,05,30,11,20,19.20
2019,05,30,11,21,19.20
2019,05,30,11,22,19.30
2019,05,30,11,23,19.40
2019,05,30,11,24,19.40
2019,05,30,11,25,19.50
2019,05,30,11,26,19.60
2019,05,30,11,27,19.70
2019,05,30,11,28,19.80
2019,05,30,11,29,19.90
2019,05,30,11,30,20.00
2019,05,30,11,31,20.10
2019,05,30,11,32,20.10
2019,05,30,11,33,20.20
2019,05,30,11,34,20.20
2019,05,30,11,35,20.20
2019,05,30,11,36,20.20
2019,05,30,11,37,20.20
2019,05,30,11,38,20.30
2019,05,30,11,39,20.40
2019,05,30,11,40,20.40
2019,05,30,11,41,20.50
2019,05,30,11,42,20.50
2019,05,30,11,43,20.60
2019,05,30,11,44,20.60
2019,05,30,11,45,20.70
2019,05,30,11,46,20.80
2019,05,30,11,47,20.80
2019,05,30,11,48,20.90
2019,05,30,11,49,20.90
2019,05,30,11,50,20.90
2019,05,30,11,51,20.90
2019,05,30,11,52,20.80
2019,05,30,11,53,20.80
2019,05,30,11,54,20.80
2019,05,30,11,55,20.70
2019,05,30,11,56,20.80
2019,05,30,11,57,20.80
2019,05,30,11,58,20.80
2019,05,30,11,59,20.90
2019,05,30,12,00,20.90
2019,05,30,12,01,20.90
2019,05,30,12,02,20.90
2019,05,30,12,03,21.00
2019,05,30,12,04,21.00
2019,05,30,12,05,21.00
2019,05,30,12,06,21.00
2019,05,30,12,07,21.00
2019,05,30,12,08,21.00
2019,05,30,12,09,21.00
2019,05,30,12,10,21.10
2019,05,30,12,11,21.10
2019,05,30,12,12,21.10
2019,05,30,12,13,21.20
2019,05,30,12,14,21.20
2019,05,30,12,15,21.20
2019,05,30,12,16,21.20
2019,05,30,12,17,21.30
2019,05,30,12,18,21.30
2019,05,30,12,19,21.40
2019,05,30,12,20,21.50
2019,05,30,12,21,21.50
2019,05,30,12,22,21.50
2019,05,30,12,23,21.40
2019,05,30,12,24,21.30
2019,05,30,12,25,21.20
2019,05,30,12,26,21.20
2019,05,30,12,27,21.10
2019,05,30,12,28,21.10
2019,05,30,12,29,21.10
2019,05,30,12,30,21.10
2019,05,30,12,31,21.00
2019,05,30,12,32,21.00
2019,05,30,12,33,21.10
2019,05,30,12,34,21.10
2019,05,30,12,35,21.10
2019,05,30,12,36,21.20
2019,05,30,12,37,21.20
2019,05,30,12,38,21.20
2019,05,30,12,39,21.20
2019,05,30,12,40,21.20
2019,05,30,12,41,21.10
2019,05,30,12,42,21.10
2019,05,30,12,43,21.00
2019,05,30,12,44,21.00
2019,05,30,12,45,21.10
2019,05,30,12,46,21.10
2019,05,30,12,47,21.10
2019,05,30,12,48,21.10
2019,05,30,12,49,21.10
2019,05,30,12,50,21.10
2019,05,30,12,51,21.20
2019,05,30,12,52,21.20
2019,05,30,12,53,21.20
2019,05,30,12,54,21.30
2019,05,30,12,55,21.40
2019,05,30,12,56,21.40
2019,05,30,12,57,21.50
2019,05,30,12,58,21.50
2019,05,30,12,59,21.50
2019,05,30,13,00,21.50
2019,05,30,13,01,21.60
2019,05,30,13,02,21.60
2019,05,30,13,03,21.60
2019,05,30,13,04,21.60
2019,05,30,13,05,21.70
2019,05,30,13,06,21.80
2019,05,30,13,07,21.90
2019,05,30,13,08,21.90
2019,05,30,13,09,21.90
2019,05,30,13,10,21.90
2019,05,30,13,11,21.90
2019,05,30,13,12,21.90
2019,05,30,13,13,22.00
2019,05,30,13,14,22.10
2019,05,30,13,15,22.00
2019,05,30,13,16,21.90
2019,05,30,13,17,21.90
2019,05,30,13,18,22.00
2019,05,30,13,19,22.00
2019,05,30,13,20,22.10
2019,05,30,13,21,22.10
2019,05,30,13,22,22.20
2019,05,30,13,23,22.20
2019,05,30,13,24,22.20
2019,05,30,13,25,22.20
2019,05,30,13,26,22.20
2019,05,30,13,27,22.20
2019,05,30,13,28,22.20
2019,05,30,13,29,22.20
2019,05,30,13,30,22.20
2019,05,30,13,31,22.20
2019,05,30,13,32,22.30
2019,05,30,13,33,22.30
2019,05,30,13,34,22.30
2019,05,30,13,35,22.40
2019,05,30,13,36,22.40
2019,05,30,13,37,22.50
2019,05,30,13,38,22.50
2019,05,30,13,39,22.50
2019,05,30,13,40,22.50
2019,05,30,13,41,22.50
2019,05,30,13,42,22.50
2019,05,30,13,43,22.50
2019,05,30,13,44,22.50
2019,05,30,13,45,22.50
2019,05,30,13,46,22.50
2019,05,30,13,47,22.50
2019,05,30,13,48,22.50
2019,05,30,13,49,22.40
2019,05,30,13,50,22.50
2019,05,30,13,51,22.50
2019,05,30,13,52,22.60
2019,05,30,13,53,22.60
2019,05,30,13,54,22.70
2019,05,30,13,55,22.80
2019,05,30,13,56,22.80
2019,05,30,13,57,22.80
2019,05,30,13,58,22.80
2019,05,30,13,59,22.80
2019,05,30,14,00,22.80
2019,05,30,14,01,22.70
2019,05,30,14,02,22.70
2019,05,30,14,03,22.70
2019,05,30,14,04,22.80
2019,05,30,14,05,22.80
2019,05,30,14,06,22.80
2019,05,30,14,07,22.90
2019,05,30,14,08,22.90
2019,05,30,14,09,22.90
2019,05,30,14,10,22.90
2019,05,30,14,11,23.00
2019,05,30,14,12,23.00
2019,05,30,14,13,23.10
2019,05,30,14,14,23.10
2019,05,30,14,15,23.10
2019,05,30,14,16,23.10
2019,05,30,14,17,23.10
2019,05,30,14,18,23.10
2019,05,30,14,19,23.10
2019,05,30,14,20,23.10
2019,05,30,14,21,23.00
2019,05,30,14,22,23.00
2019,05,30,14,23,23.00
2019,05,30,14,24,23.00
2019,05,30,14,25,23.00
2019,05,30,14,26,23.00
2019,05,30,14,27,23.00
2019,05,30,14,28,23.10
2019,05,30,14,29,23.10
2019,05,30,14,30,23.10
2019,05,30,14,31,23.20
2019,05,30,14,32,23.20
2019,05,30,14,33,23.30
2019,05,30,14,34,23.40
2019,05,30,14,35,23.40
2019,05,30,14,36,23.40
2019,05,30,14,37,23.40
2019,05,30,14,38,23.40
2019,05,30,14,39,23.40
2019,05,30,14,40,23.40
2019,05,30,14,41,23.40
2019,05,30,14,42,23.40
2019,05,30,14,43,23.40
2019,05,30,14,44,23.40
2019,05,30,14,45,23.50
2019,05,30,14,46,23.50
2019,05,30,14,47,23.50
2019,05,30,14,48,23.60
2019,05,30,14,49,23.60
2019,05,30,14,50,23.60
2019,05,30,14,51,23.50
2019,05,30,14,52,23.60
2019,05,30,14,53,23.60
2019,05,30,14,54,23.60
2019,05,30,14,55,23.60
2019,05,30,14,56,23.60
2019,05,30,14,57,23.60
2019,05,30,14,58,23.60
2019,05,30,14,59,23.70
2019,05,30,15,00,23.70
2019,05,30,15,01,23.80
2019,05,30,15,02,23.80
2019,05,30,15,03,23.80
2019,05,30,15,04,23.80
2019,05,30,15,05,23.90
2019,05,30,15,06,23.90
2019,05,30,15,07,24.00
2019,05,30,15,08,24.10
2019,05,30,15,09,24.10
2019,05,30,15,10,24.10
2019,05,30,15,11,24.20
2019,05,30,15,12,24.20
2019,05,30,15,13,24.20
2019,05,30,15,14,24.20
2019,05,30,15,15,24.20
2019,05,30,15,16,24.20
2019,05,30,15,17,24.20
2019,05,30,15,18,24.10
2019,05,30,15,19,24.10
2019,05,30,15,20,24.10
2019,05,30,15,21,24.10
2019,05,30,15,22,24.10
2019,05,30,15,23,24.10
2019,05,30,15,24,24.10
2019,05,30,15,25,24.10
2019,05,30,15,26,24.10
2019,05,30,15,27,24.00
2019,05,30,15,28,24.00
2019,05,30,15,29,24.00
2019,05,30,15,30,24.00
2019,05,30,15,31,24.00
2019,05,30,15,32,24.10
2019,05,30,15,33,24.10
2019,05,30,15,34,24.10
2019,05,30,15,35,24.10
2019,05,30,15,36,24.10
2019,05,30,15,37,24.10
2019,05,30,15,38,24.00
2019,05,30,15,39,24.00
2019,05,30,15,40,23.90
2019,05,30,15,41,23.90
2019,05,30,15,42,23.90
2019,05,30,15,43,23.80
2019,05,30,15,44,23.80
2019,05,30,15,45,23.70
2019,05,30,15,46,23.80
2019,05,30,15,47,23.80
2019,05,30,15,48,23.80
2019,05,30,15,49,23.70
2019,05,30,15,50,23.70
2019,05,30,15,51,23.70
2019,05,30,15,52,23.60
2019,05,30,15,53,23.60
2019,05,30,15,54,23.60
2019,05,30,15,55,23.70
2019,05,30,15,56,23.80
2019,05,30,15,57,23.80
2019,05,30,15,58,23.80
2019,05,30,15,59,23.80
2019,05,30,16,00,23.80
2019,05,30,16,01,23.70
2019,05,30,16,02,23.70
2019,05,30,16,03,23.60
2019,05,30,16,04,23.60
2019,05,30,16,05,23.60
2019,05,30,16,06,23.60
2019,05,30,16,07,23.50
2019,05,30,16,08,23.50
2019,05,30,16,09,23.50
2019,05,30,16,10,23.60
2019,05,30,16,11,23.60
2019,05,30,16,12,23.60
2019,05,30,16,13,23.70
2019,05,30,16,14,23.70
2019,05,30,16,15,23.80
2019,05,30,16,16,23.80
2019,05,30,16,17,23.90
2019,05,30,16,18,23.90
2019,05,30,16,19,24.00
2019,05,30,16,20,24.10
2019,05,30,16,21,24.10
2019,05,30,16,22,24.20
2019,05,30,16,23,24.30
2019,05,30,16,24,24.40
2019,05,30,16,25,24.40
2019,05,30,16,26,24.50
2019,05,30,16,27,24.60
2019,05,30,16,28,24.60
2019,05,30,16,29,24.70
2019,05,30,16,30,24.80
2019,05,30,16,31,24.80
2019,05,30,16,32,24.90
2019,05,30,16,33,25.00
2019,05,30,16,34,25.00
2019,05,30,16,35,25.10
2019,05,30,16,36,25.20
2019,05,30,16,37,25.30
2019,05,30,16,38,25.40
2019,05,30,16,39,25.40
2019,05,30,16,40,25.40
2019,05,30,16,41,25.40
2019,05,30,16,42,25.40
2019,05,30,16,43,25.40
2019,05,30,16,44,25.30
2019,05,30,16,45,25.30
2019,05,30,16,46,25.30
2019,05,30,16,47,25.30
2019,05,30,16,48,25.30
2019,05,30,16,49,25.30
2019,05,30,16,50,25.30
2019,05,30,16,51,25.20
2019,05,30,16,52,25.20
2019,05,30,16,53,25.20
2019,05,30,16,54,25.30
2019,05,30,16,55,25.30
2019,05,30,16,56,25.40
2019,05,30,16,57,25.50
2019,05,30,16,58,25.60
2019,05,30,16,59,25.60
2019,05,30,17,00,25.70
2019,05,30,17,01,25.70
2019,05,30,17,02,25.80
2019,05,30,17,03,25.80
2019,05,30,17,04,25.80
2019,05,30,17,05,25.80
2019,05,30,17,06,25.90
2019,05,30,17,07,25.90
2019,05,30,17,08,26.00
2019,05,30,17,09,26.10
2019,05,30,17,10,26.10
2019,05,30,17,11,26.00
2019,05,30,17,12,26.00
2019,05,30,17,13,26.00
2019,05,30,17,14,26.00
2019,05,30,17,15,26.10
2019,05,30,17,16,26.10
2019,05,30,17,17,26.10
2019,05,30,17,18,26.20
2019,05,30,17,19,26.20
2019,05,30,17,20,26.30
2019,05,30,17,21,26.30
2019,05,30,17,22,26.30
2019,05,30,17,23,26.30
2019,05,30,17,24,26.30
2019,05,30,17,25,26.30
2019,05,30,17,26,26.30
2019,05,30,17,27,26.40
2019,05,30,17,28,26.40
2019,05,30,17,29,26.40